Погода в Новосергиевке

Россия / Оренбургская область     52°04′21″N   53°38′40″E
темп.,
°C
ветер,
м/с
пор.,
м/с
влажн.,
%
обл.,
%
осадки,
мм/ч
давл.,
гПа
погр.,
м
28 января, чт
чт2823:00−9юв5129316 0.0 1030221
02:00−10ююв4119167 0.0 1030233
05:00−11ююв4119064 0.0 1028209
08:00−12юв499070 0.0 1028194
11:00−11юв5138985 0.0 1027275
14:00−8ююв51289100 0.0 1025361
17:00−7юв61289100 0.0 1024281
20:00−8юв61288100 0.0 1023257
29 января, пт
пт2923:00−8юв61285100 0.0 1023257
02:00−8юв61385100 0.0 1022277
05:00−7юв71483100 0.0 1020306
08:00−6юв71482100 0.0 1019335
11:00−5юв71482100 0.0 1018381
14:00−4юв71386100 0.0 1016472
17:00−3юв71290100 0.1 1014454
20:00−3юв51295100 1.5 1014578
30 января, сб
сб3023:00−3ююв61195100 1.6 1013423
02:00−3ююв51096100 0.6 1012411
05:00−4ююв4796100 0.9 1012260
08:00−5ююв3497100 0.1 101297
11:00−3ююз359999 0.2 1013204
14:00−2юз4697100 0.0 1014331
17:00−4ю489588 0.0 1015176
20:00−6ю5109340 0.0 1016177
31 января, вс
вс3123:00−6ююз5129356 0.0 1016224
02:00−4ююз5996100 0.1 1017271
05:00−4ююз4895100 0.3 1018200
08:00−7ю349296 0.0 101952
11:00−6ююв349098 0.0 101992
14:00−4ююв498894 0.0 1019270
17:00−4юв498765 0.0 1018202
20:00−6юв513860 0.0 1018260
1 февраля, пн
пн123:00−6ююв616862 0.0 1018332
02:00−7ю7159449 0.0 1017442
05:000ююз8149674 0.2 1016722
08:00+1ююз71298100 0.9 1016490
11:000юз61096100 1.0 1018687
14:00−1юз599297 0.1 1021535
17:00−6юз349197 0.1 102367
20:00−9юз339196 0.0 102522